Other Public Products
Issued by NWS Grand Forks, ND

Home | Current Version | Previous Version | Text Only | Print | Product List | Glossary On
Versions: 1 2 3 4 5 6 7 8 9 10 11 12 13 14 15 16 17 18 19 20 21 22 23 24 25 26 27 28 29 30 31 32 33 34 35 36 37 38 39 40 41 42 43 44 45 46 47 48 49 50
000
FPUS83 KFGF 272331
OPUFGF
PRAIRIE TO PINES WEATHER ROUNDUP
NATIONAL WEATHER SERVICE EASTERN NORTH DAKOTA/GRAND FORKS ND
500 PM CST FRI FEB 27 2015

 **SATELLITE DATA USED TO AUGMENT SKY COVER AT AUTOMATED STATIONS**
 *****  WEATHER ACROSS EASTERN NORTH DAKOTA  *****

CITY           SKY/WX    TMP DP  RH WIND       PRES   REMARKS
GRAND FORKS    MOSUNNY   17   2  51 SW12      30.36F WCI   4
GRAND FORKS AF FAIR      17   1  48 S10       30.35F WCI   5
GRAND CITY NWS   N/A     16 N/A N/A S13         N/A  WCI   2
BUXTON         NOT AVBL
DEVILS LAKE    SUNNY     12   1  62 S9        30.26F WCI   0
FARGO          SUNNY     17   1  49 SW10      30.40F WCI   5
WAHPETON ARPT  CLEAR     16   0  48 S7        30.42F WCI   6
$$

 *****  WEATHER ACROSS CENTRAL AND WESTERN NORTH DAKOTA  *****

CITY           SKY/WX    TMP DP  RH WIND       PRES   REMARKS
JAMESTOWN      SUNNY     15   1  53 S9        30.29F WCI   3
BISMARCK       SUNNY     20   5  52 SE14      30.21F WCI   7
MINOT          SUNNY     18   3  52 SE6       30.15F WCI  10
MINOT AFB      SUNNY     15   5  65 S7        30.16F WCI   5
GARRISON         N/A     18   6  59 S14       30.14F WCI   4
WILLISTON      MOSUNNY   26   4  38 SE10      30.05F WCI  16
DICKINSON      SUNNY     26   5  40 S20       30.02F WCI  12
HETTINGER      SUNNY     26   4  38 S15G28    30.04F WCI  14
$$

 *****  OTHER OBSERVATIONS NORTHEAST NORTH DAKOTA  *****

CITY           SKY/WX    TMP DP  RH WIND       PRES   REMARKS
WALHALLA         N/A     14   1  57 SW8       30.31S WCI   3
LANGDON        NOT AVBL
CAVALIER       FAIR      16   1  53 SW7       30.32F WCI   6
GRAFTON        NOT AVBL
CANDO          FAIR      12   3  67 S10       30.24F WCI  -1
FORT TOTTEN      N/A     14   0  52 S8        29.95S WCI   3
ROLLA          FAIR       9   1  72 S12       30.20S WCI  -6
RUGBY          FAIR      10   3  72 S9        30.21F WCI  -2
 ***** THE ABOVE OBSERVATIONS ARE NON NWS ARE NOT QUALITY
        CONTROLLED AND MAY MIS-REPORT RAIN FOR SNOW...
$$

 *****  OTHER OBSERVATIONS SOUTHEAST NORTH DAKOTA *****

CITY           SKY/WX    TMP DP  RH WIND       PRES   REMARKS
COOPERSTOWN    NOT AVBL
VALLEY CITY    FAIR      12   3  67 S10       30.32F WCI  -1
OAKES            N/A     14   1  57 S12       30.34F WCI   0
GWINNER        CLEAR     16   1  53 S13       30.37F WCI   2
SHEYENNE NWR     N/A     16  -1  47 S8        29.95S WCI   5
BUFFALO        NOT AVBL
WYNDMERE         N/A     16   1  53 SW8         N/A  WCI   5
 ***** THE ABOVE OBSERVATIONS ARE NON NWS ARE NOT QUALITY
       CONTROLLED AND MAY MIS-REPORT RAIN FOR SNOW...
$$

  *****  WEATHER ACROSS NORTHERN MINNESOTA  *****

CITY           SKY/WX    TMP DP  RH WIND       PRES   REMARKS
FLAG ISLAND    CLEAR     14  -2  48 SW16      30.27S WCI  -2
WARROAD        CLEAR     12   0  57 SW7       30.32S WCI   2
ROSEAU         CLEAR     12   1  62 SW10      30.32F WCI  -1
HALLOCK        CLEAR     14   7  73 S7        30.33F WCI   4
THF RVR FALLS  CLEAR     14   0  52 SW9       30.35S WCI   2
HALSTAD          N/A     16   0  48 SW9         N/A  WCI   5
FOSSTON        CLEAR     16   3  57 SW8       30.36S WCI   5
BAUDETTE       CLEAR     16  -8  34 W9        30.29F WCI   4
WASKISH        FAIR      12  -2  52 CALM      30.34S
CROOKSTON      CLEAR     16   7  67 SW13      30.38F WCI   2
$$
  *****  WEATHER ACROSS CENTRAL AND WEST MINNESOTA  *****

CITY           SKY/WX    TMP DP  RH WIND       PRES   REMARKS
BEMIDJI        CLEAR     15  -4  42 W7        30.33F WCI   5
PARK RAPIDS    CLEAR     15  -6  39 SW12      30.35F WCI   2
WADENA         CLEAR     10   0  61 SW6       30.39S WCI   1
DETROIT LAKES  CLEAR     14   0  52 SW7       30.38F WCI   4
MOORHEAD       SUNNY     18  -2  41 S9        30.41S WCI   6
FERGUS FALLS   SUNNY     14   0  52 S8        30.45S WCI   3
ELBOW LAKE     FAIR      12   1  61 SW5       30.42S WCI   4
MORRIS MN      SUNNY     14   0  52 S8        30.43S WCI   3
STAPLES        CLEAR     12  -4  48 W7        30.40S WCI   2
WHEATON        SUNNY     12  -2  52 S6        30.45F WCI   3
$$
  *****  WEATHER ELSEWHERE ACROSS MINNESOTA  *****

CITY           SKY/WX    TMP DP  RH WIND       PRES   REMARKS
DULUTH         CLEAR     18  -5  36 W16       30.34F WCI   3
INTRNTL FALLS  PTCLDY    17  -8  32 SW12      30.30F WCI   4
ELY            CLEAR     18  -9  29 SW8       30.29F WCI   7
CLOQUET        CLEAR     18  -9  29 SW9       30.36F WCI   6
BRAINERD       CLEAR     16  -5  39 SW12      30.39F WCI   3
HIBBING        CLEAR     19 -11  26 W9        30.33F WCI   8
ALEXANDRIA     CLEAR     12  -3  51 SW7       30.41F WCI   1
SAINT CLOUD    CLEAR     16  -4  41 S9        30.45F WCI   4
MINNEAPOLIS    CLEAR     14  -2  49 SW8       30.50F WCI   3
$$

  *****  WEATHER ACROSS SOUTH DAKOTA  *****

CITY           SKY/WX    TMP DP  RH WIND       PRES   REMARKS
SIOUX FALLS    SUNNY     14   2  58 SE8       30.43F WCI   3
BROOKINGS      NOT AVBL
WATERTOWN      SUNNY     11  -1  58 S9        30.36F WCI  -2
HURON          SUNNY     20   2  45 SE9       30.36F WCI   9
SISSETON         N/A     15   0  51 SW9       30.41S WCI   3
ABERDEEN       SUNNY     14   3  61 S12       30.37F WCI   0
MITCHELL       SUNNY     23  -1  35 S14       30.39F WCI  11
PIERRE         SUNNY     26  -4  27 S17G25    30.23F WCI  13
MOBRIDGE       SUNNY     21   6  52 S17       30.20F WCI   7
RAPID CITY     CLOUDY    23  11  60 S25       30.02F WCI   7
$$

  *****  SOME WEATHER IN NEARBY STATES *****

CITY           SKY/WX    TMP DP  RH WIND       PRES   REMARKS
GLASGOW MT     PTSUNNY   22   6  50 NW9       30.02S WCI  12
GREAT FALLS MT FLURRIES  19  12  74 NW8       30.02R WCI   9
CHEYENNE WY    LGT SNOW  12   5  73 S17       29.84F WCI  -5
SCOTTSBLUFF NE CLOUDY    23   8  52 S23G30    30.00F WCI   7
OMAHA NE       MOSUNNY   19   4  51 E8        30.52F WCI   9
DES MOINES IA  MOSUNNY   14  -3  47 CALM      30.56F
DAVENPORT IA   CLEAR      5  -4  66 W6        30.62S WCI  -6
CHICAGO IL     CLEAR     11  -5  48 W8        30.59R WCI  -1
EAU CLAIRE WI  CLEAR     12  -2  53 SW8       30.49F WCI   0
LA CROSSE WI   CLEAR     15  -3  44 N3        30.55S
$$

  *****  SOME NATIONAL WEATHER *****

CITY           SKY/WX    TMP DP  RH WIND       PRES   REMARKS
LA GUARDIA NY  PTCLDY    29   4  34 W10       30.46R WCI  20
RALEIGH NC     PTCLDY    40  22  48 NE7       30.43R
ATLANTA GA     PTCLDY    45  18  34 N8        30.36R
NEW ORLEANS LA MOSUNNY   51  33  50 N13       30.31F
OKLAHOMA CITY  FLURRIES  19  12  73 E9        30.44F WCI   9
ALBUQUERQUE NM LGT SNOW  25  22  88 N10       29.88F FOG     WCI  15
SALT LAKE CITY PTSUNNY   41  27  57 E8        29.71F
LOS ANGELES CA PTSUNNY   63  51  65 SW13      29.77F
BOISE ID       MOSUNNY   52  28  39 SE13      29.63F
SEATTLE WA     CLOUDY    50  44  80 N14       29.76S
$$

*** WEATHER ACROSS MANITOBA...SASKATCHEWAN AND ONTARIO ***
                ***ONTARIO***

CITY           SKY/WX    TMP DP  RH WIND       PRES   REMARKS
GERALDTON      MOCLDY    14  -9  34 W10       30.16S WCI   1
THUNDER BAY    PTCLDY    19  -8  30 W12G17    30.30S WCI   7
SIOUX LOOKOUT  CLOUDY    14  -8  37 SW10G17   30.18S WCI   1
TORONTO        PTCLDY    10  -2  56 W14       30.55R WCI  -5
BIG TROUT LK   CLOUDY    12   1  62 NW14      29.96R WCI  -3
PICKLE LAKE    PTCLDY    16  -6  38 W13G26    30.04S WCI   2
DRYDEN         MOCLDY    14  -6  41 SW17G25   30.20S WCI  -3
KENORA         MOCLDY    12  -2  52 S13       30.22F WCI  -3
$$
                *** MANITOBA***

CITY           SKY/WX    TMP DP  RH WIND       PRES   REMARKS
BRANDON        CLOUDY     9   0  66 SW10      30.21F WCI  -6
DAUPHIN        SUNNY     12   3  67 NW8       30.17F WCI   1
ISLAND LAKE    PTCLDY    10   0  61 W12       30.03R WCI  -4
PILOT MOUND      N/A      7   1  78 S13         N/A  WCI  -9
THE PAS        PTCLDY    14   0  52 W10       30.10F WCI   1
THOMPSON       FLURRIES  12   1  62 NW12      30.02R WCI  -2
WINNIPEG         N/A     14   1  57 SW12G18   30.29F WCI   0
LYNN LAKE      PTCLDY    10   3  72 W10       30.02R WCI  -3
CHURCHILL      CRYSTALS  -2  -8  78 NW7       29.97S WCI -16
GILLAM         LGT SNOW   9   1  72 W9        29.98S WCI  -5
$$
                ***SASKATCHEWAN***

CITY           SKY/WX    TMP DP  RH WIND       PRES   REMARKS
ESTEVAN        PTSUNNY   16   5  62 S8        30.10F WCI   5
KINDERSLEY     PTSUNNY    9   5  85 N14       30.11R WCI  -8
LLOYDMINSTER   FLURRIES   9   3  78 NW12      30.13S WCI  -6
PRINCE ALBERT  PTSUNNY    9  -2  61 CALM      30.13S
REGINA         CLOUDY     5  -2  72 SE6       30.10S WCI  -6



USA.gov is the U.S. government's official web portal to all federal, state and local government web resources and services.